Time,TemperatureF,DewpointF,PressureIn,WindDirection,WindDirectionDegrees,WindSpeedMPH,WindSpeedGustMPH,Humidity,HourlyPrecipIn,Conditions,Clouds,dailyrainin,SoftwareType,DateUTC
2013-02-22 00:00:00,13.4,11.3,29.67,West,271,0.0,9.0,91,0.00,,,0.20,Wunderground v.1.15,2013-02-22 07:00:00,
2013-02-22 00:05:00,13.5,11.4,29.68,West,271,0.0,9.0,91,0.00,,,0.20,Wunderground v.1.15,2013-02-22 07:05:00,
2013-02-22 00:10:00,13.3,10.7,29.68,West,271,0.0,9.0,89,0.00,,,0.20,Wunderground v.1.15,2013-02-22 07:10:00,
2013-02-22 00:15:00,12.8,9.9,29.68,West,271,0.0,9.0,88,0.00,,,0.20,Wunderground v.1.15,2013-02-22 07:15:00,
2013-02-22 00:20:00,12.4,9.3,29.68,West,271,0.0,9.0,87,0.00,,,0.20,Wunderground v.1.15,2013-02-22 07:20:00,
2013-02-22 00:25:00,12.0,8.9,29.68,West,271,0.0,9.0,87,0.00,,,0.20,Wunderground v.1.15,2013-02-22 07:25:00,
2013-02-22 00:30:00,11.6,8.5,29.68,West,271,0.0,9.0,87,0.00,,,0.20,Wunderground v.1.15,2013-02-22 07:30:00,
2013-02-22 00:35:00,11.2,8.1,29.68,West,271,0.0,9.0,87,0.00,,,0.20,Wunderground v.1.15,2013-02-22 07:35:00,
2013-02-22 00:40:00,10.8,7.7,29.68,West,271,0.0,9.0,87,0.00,,,0.20,Wunderground v.1.15,2013-02-22 07:40:00,
2013-02-22 00:45:00,10.4,7.3,29.68,West,271,0.0,9.0,87,0.00,,,0.20,Wunderground v.1.15,2013-02-22 07:45:00,
2013-02-22 00:50:00,10.0,6.9,29.68,West,271,0.0,9.0,87,0.00,,,0.20,Wunderground v.1.15,2013-02-22 07:50:00,
2013-02-22 00:55:00,10.2,7.9,29.68,West,271,0.0,9.0,90,0.00,,,0.20,Wunderground v.1.15,2013-02-22 07:55:00,
2013-02-22 01:05:00,11.6,10.0,29.69,West,271,0.0,9.0,93,0.00,,,0.00,Wunderground v.1.15,2013-02-22 08:05:00,
2013-02-22 01:15:00,12.4,10.5,29.68,West,271,0.0,9.0,92,0.00,,,0.00,Wunderground v.1.15,2013-02-22 08:15:00,
2013-02-22 01:20:00,12.6,10.5,29.68,West,271,0.0,9.0,91,0.00,,,0.00,Wunderground v.1.15,2013-02-22 08:20:00,
2013-02-22 01:25:00,13.0,11.1,29.69,West,271,0.0,9.0,92,0.00,,,0.00,Wunderground v.1.15,2013-02-22 08:25:00,
2013-02-22 01:35:00,13.3,11.2,29.69,West,271,0.0,9.0,91,0.00,,,0.00,Wunderground v.1.15,2013-02-22 08:35:00,
2013-02-22 01:40:00,13.5,11.4,29.69,West,271,0.0,9.0,91,0.00,,,0.00,Wunderground v.1.15,2013-02-22 08:40:00,
2013-02-22 01:45:00,13.7,11.3,29.69,West,271,0.0,9.0,90,0.00,,,0.00,Wunderground v.1.15,2013-02-22 08:45:00,
2013-02-22 01:50:00,13.9,11.5,29.69,West,271,0.0,9.0,90,0.00,,,0.00,Wunderground v.1.15,2013-02-22 08:50:00,
2013-02-22 01:55:00,14.0,11.6,29.69,West,271,0.0,9.0,90,0.00,,,0.00,Wunderground v.1.15,2013-02-22 08:55:00,
2013-02-22 02:00:00,13.9,11.5,29.69,West,271,0.0,9.0,90,0.00,,,0.00,Wunderground v.1.15,2013-02-22 09:00:00,
2013-02-22 02:05:00,13.8,11.2,29.69,West,271,0.0,9.0,89,0.00,,,0.00,Wunderground v.1.15,2013-02-22 09:05:00,
2013-02-22 02:10:00,13.4,10.5,29.69,West,271,0.0,9.0,88,0.00,,,0.00,Wunderground v.1.15,2013-02-22 09:10:00,
2013-02-22 02:15:00,13.1,10.5,29.69,West,271,0.0,9.0,89,0.00,,,0.00,Wunderground v.1.15,2013-02-22 09:15:00,
2013-02-22 02:20:00,13.0,10.4,29.68,West,271,0.0,9.0,89,0.00,,,0.00,Wunderground v.1.15,2013-02-22 09:20:00,
2013-02-22 02:25:00,12.9,10.0,29.69,West,271,0.0,9.0,88,0.00,,,0.00,Wunderground v.1.15,2013-02-22 09:25:00,
2013-02-22 02:30:00,12.6,9.7,29.68,West,271,0.0,9.0,88,0.00,,,0.00,Wunderground v.1.15,2013-02-22 09:30:00,
2013-02-22 02:35:00,12.2,9.3,29.68,West,271,0.0,9.0,88,0.00,,,0.00,Wunderground v.1.15,2013-02-22 09:35:00,
2013-02-22 02:40:00,11.8,8.9,29.68,West,271,0.0,9.0,88,0.00,,,0.00,Wunderground v.1.15,2013-02-22 09:40:00,
2013-02-22 02:45:00,11.6,9.0,29.68,West,271,0.0,9.0,89,0.00,,,0.00,Wunderground v.1.15,2013-02-22 09:45:00,
2013-02-22 02:55:00,11.3,8.7,29.68,West,271,0.0,9.0,89,0.00,,,0.00,Wunderground v.1.15,2013-02-22 09:55:00,
2013-02-22 03:00:00,11.2,8.6,29.68,West,271,0.0,9.0,89,0.00,,,0.00,Wunderground v.1.15,2013-02-22 10:00:00,
2013-02-22 03:05:00,11.1,8.5,29.68,West,271,0.0,9.0,89,0.00,,,0.00,Wunderground v.1.15,2013-02-22 10:05:00,
2013-02-22 03:15:00,11.7,9.3,29.68,West,271,0.0,9.0,90,0.00,,,0.00,Wunderground v.1.15,2013-02-22 10:15:00,
2013-02-22 03:20:00,11.8,9.2,29.68,West,271,0.0,9.0,89,0.00,,,0.00,Wunderground v.1.15,2013-02-22 10:20:00,
2013-02-22 03:25:00,11.8,9.2,29.68,West,271,0.0,9.0,89,0.00,,,0.00,Wunderground v.1.15,2013-02-22 10:25:00,
2013-02-22 03:30:00,12.1,9.7,29.69,West,271,0.0,9.0,90,0.00,,,0.00,Wunderground v.1.15,2013-02-22 10:30:00,
2013-02-22 03:35:00,12.3,9.9,29.68,West,271,0.0,9.0,90,0.00,,,0.00,Wunderground v.1.15,2013-02-22 10:35:00,
2013-02-22 03:40:00,12.5,10.1,29.68,West,271,0.0,9.0,90,0.00,,,0.00,Wunderground v.1.15,2013-02-22 10:40:00,
2013-02-22 03:45:00,12.4,9.8,29.69,West,271,0.0,9.0,89,0.00,,,0.00,Wunderground v.1.15,2013-02-22 10:45:00,
2013-02-22 03:50:00,12.5,9.9,29.69,West,271,0.0,9.0,89,0.00,,,0.00,Wunderground v.1.15,2013-02-22 10:50:00,
2013-02-22 03:55:00,12.5,9.9,29.69,West,271,0.0,9.0,89,0.00,,,0.00,Wunderground v.1.15,2013-02-22 10:55:00,
2013-02-22 04:00:00,12.1,9.2,29.69,West,271,0.0,9.0,88,0.00,,,0.00,Wunderground v.1.15,2013-02-22 11:00:00,
2013-02-22 04:05:00,11.8,8.9,29.69,West,271,0.0,9.0,88,0.00,,,0.00,Wunderground v.1.15,2013-02-22 11:05:00,
2013-02-22 04:10:00,11.7,9.1,29.69,West,271,0.0,9.0,89,0.00,,,0.00,Wunderground v.1.15,2013-02-22 11:10:00,
2013-02-22 04:20:00,11.6,9.0,29.69,West,271,0.0,9.0,89,0.00,,,0.00,Wunderground v.1.15,2013-02-22 11:20:00,
2013-02-22 04:30:00,11.9,9.5,29.69,West,271,0.0,9.0,90,0.00,,,0.00,Wunderground v.1.15,2013-02-22 11:30:00,
2013-02-22 04:35:00,12.1,9.5,29.69,West,271,0.0,9.0,89,0.00,,,0.00,Wunderground v.1.15,2013-02-22 11:35:00,
2013-02-22 04:40:00,12.1,9.5,29.69,West,271,0.0,9.0,89,0.00,,,0.00,Wunderground v.1.15,2013-02-22 11:40:00,
2013-02-22 04:45:00,12.3,9.9,29.69,West,271,0.0,9.0,90,0.00,,,0.00,Wunderground v.1.15,2013-02-22 11:45:00,
2013-02-22 04:50:00,12.5,9.9,29.69,West,271,0.0,9.0,89,0.00,,,0.00,Wunderground v.1.15,2013-02-22 11:50:00,
2013-02-22 04:55:00,12.4,9.8,29.69,West,271,0.0,9.0,89,0.00,,,0.00,Wunderground v.1.15,2013-02-22 11:55:00,
2013-02-22 05:00:00,12.3,9.4,29.69,West,271,0.0,9.0,88,0.00,,,0.00,Wunderground v.1.15,2013-02-22 12:00:00,
2013-02-22 05:10:00,12.7,9.8,29.69,West,271,0.0,9.0,88,0.00,,,0.00,Wunderground v.1.15,2013-02-22 12:10:00,
2013-02-22 05:15:00,12.9,10.0,29.69,West,271,0.0,9.0,88,0.00,,,0.00,Wunderground v.1.15,2013-02-22 12:15:00,
2013-02-22 05:20:00,13.0,10.1,29.69,West,271,0.0,9.0,88,0.00,,,0.00,Wunderground v.1.15,2013-02-22 12:20:00,
2013-02-22 05:25:00,13.3,10.4,29.69,West,271,0.0,9.0,88,0.00,,,0.00,Wunderground v.1.15,2013-02-22 12:25:00,
2013-02-22 05:35:00,13.5,10.4,29.70,WSW,252,0.0,9.0,87,0.00,,,0.00,Wunderground v.1.15,2013-02-22 12:35:00,
2013-02-22 05:40:00,13.6,10.5,29.70,WSW,252,0.0,9.0,87,0.00,,,0.00,Wunderground v.1.15,2013-02-22 12:40:00,
2013-02-22 05:50:00,13.7,10.3,29.70,WSW,252,0.0,9.0,86,0.00,,,0.00,Wunderground v.1.15,2013-02-22 12:50:00,
2013-02-22 05:55:00,13.9,10.5,29.70,WSW,252,0.0,9.0,86,0.00,,,0.00,Wunderground v.1.15,2013-02-22 12:55:00,
2013-02-22 06:00:00,13.9,10.2,29.70,WSW,252,0.0,9.0,85,0.00,,,0.00,Wunderground v.1.15,2013-02-22 13:00:00,
2013-02-22 06:05:00,13.8,10.4,29.70,WSW,252,0.0,9.0,86,0.00,,,0.00,Wunderground v.1.15,2013-02-22 13:05:00,
2013-02-22 06:15:00,13.8,10.1,29.71,WSW,252,0.0,9.0,85,0.00,,,0.00,Wunderground v.1.15,2013-02-22 13:15:00,
2013-02-22 06:20:00,13.7,10.0,29.72,WSW,252,0.0,9.0,85,0.00,,,0.00,Wunderground v.1.15,2013-02-22 13:20:00,
2013-02-22 06:25:00,13.4,9.7,29.72,WSW,252,0.0,9.0,85,0.00,,,0.00,Wunderground v.1.15,2013-02-22 13:25:00,
2013-02-22 06:30:00,13.3,9.6,29.72,NNW,329,0.0,9.0,85,0.00,,,0.00,Wunderground v.1.15,2013-02-22 13:30:00,
2013-02-22 06:35:00,13.5,10.1,29.72,NNW,329,0.0,9.0,86,0.00,,,0.00,Wunderground v.1.15,2013-02-22 13:35:00,
2013-02-22 06:40:00,13.6,9.9,29.72,NNW,329,0.0,9.0,85,0.00,,,0.00,Wunderground v.1.15,2013-02-22 13:40:00,
2013-02-22 06:45:00,13.9,10.0,29.72,WNW,282,0.0,9.0,84,0.00,,,0.00,Wunderground v.1.15,2013-02-22 13:45:00,
2013-02-22 06:50:00,14.1,10.2,29.72,WNW,282,0.0,9.0,84,0.00,,,0.00,Wunderground v.1.15,2013-02-22 13:50:00,
2013-02-22 07:00:00,14.0,10.1,29.72,WNW,282,0.0,9.0,84,0.00,,,0.00,Wunderground v.1.15,2013-02-22 14:00:00,
2013-02-22 07:05:00,14.0,10.1,29.73,WNW,282,0.0,9.0,84,0.00,,,0.00,Wunderground v.1.15,2013-02-22 14:05:00,
2013-02-22 07:10:00,14.1,10.2,29.72,WNW,282,0.0,9.0,84,0.00,,,0.00,Wunderground v.1.15,2013-02-22 14:10:00,
2013-02-22 07:15:00,14.1,10.2,29.73,WNW,282,0.0,9.0,84,0.00,,,0.00,Wunderground v.1.15,2013-02-22 14:15:00,
2013-02-22 07:20:00,14.1,10.4,29.73,West,280,0.0,9.0,85,0.00,,,0.00,Wunderground v.1.15,2013-02-22 14:20:00,
2013-02-22 07:25:00,14.3,10.6,29.73,West,280,0.0,9.0,85,0.00,,,0.00,Wunderground v.1.15,2013-02-22 14:25:00,
2013-02-22 07:30:00,14.5,10.5,29.74,West,280,0.0,9.0,84,0.00,,,0.00,Wunderground v.1.15,2013-02-22 14:30:00,
2013-02-22 07:35:00,14.8,10.8,29.74,West,280,0.0,9.0,84,0.00,,,0.00,Wunderground v.1.15,2013-02-22 14:35:00,
2013-02-22 07:40:00,15.1,11.4,29.74,West,280,0.0,9.0,85,0.00,,,0.00,Wunderground v.1.15,2013-02-22 14:40:00,
2013-02-22 07:45:00,15.5,12.1,29.74,West,280,0.0,9.0,86,0.00,,,0.00,Wunderground v.1.15,2013-02-22 14:45:00,
2013-02-22 07:55:00,17.1,12.6,29.74,West,267,0.0,9.0,82,0.00,,,0.00,Wunderground v.1.15,2013-02-22 14:55:00,
2013-02-22 08:05:00,19.0,13.0,29.75,West,281,0.0,9.0,77,0.00,,,0.00,Wunderground v.1.15,2013-02-22 15:05:00,
2013-02-22 08:10:00,19.7,13.4,29.75,West,281,0.0,9.0,76,0.00,,,0.00,Wunderground v.1.15,2013-02-22 15:10:00,
2013-02-22 08:15:00,20.4,13.4,29.75,ESE,120,0.0,9.0,74,0.00,,,0.00,Wunderground v.1.15,2013-02-22 15:15:00,
2013-02-22 08:20:00,21.0,13.7,29.75,South,174,0.0,9.0,73,0.00,,,0.00,Wunderground v.1.15,2013-02-22 15:20:00,
2013-02-22 08:25:00,21.3,13.4,29.75,SW,231,0.0,9.0,71,0.00,,,0.00,Wunderground v.1.15,2013-02-22 15:25:00,
2013-02-22 08:30:00,21.6,12.7,29.76,West,267,0.0,9.0,68,0.00,,,0.00,Wunderground v.1.15,2013-02-22 15:30:00,
2013-02-22 08:35:00,21.9,13.3,29.75,SW,215,0.0,9.0,69,0.00,,,0.00,Wunderground v.1.15,2013-02-22 15:35:00,
2013-02-22 08:40:00,22.4,13.1,29.75,SW,215,0.0,9.0,67,0.00,,,0.00,Wunderground v.1.15,2013-02-22 15:40:00,
2013-02-22 08:45:00,23.2,13.5,29.75,SW,221,0.0,9.0,66,0.00,,,0.00,Wunderground v.1.15,2013-02-22 15:45:00,
2013-02-22 08:50:00,23.9,13.8,29.75,SW,217,0.0,9.0,65,0.00,,,0.00,Wunderground v.1.15,2013-02-22 15:50:00,
2013-02-22 08:55:00,24.4,14.0,29.75,NNE,19,0.0,9.0,64,0.00,,,0.00,Wunderground v.1.15,2013-02-22 15:55:00,
2013-02-22 09:00:00,24.6,13.1,29.74,West,263,1.0,1.0,61,0.00,,,0.00,Wunderground v.1.15,2013-02-22 16:00:00,
2013-02-22 09:05:00,24.7,13.1,29.74,West,277,0.0,9.0,61,0.00,,,0.00,Wunderground v.1.15,2013-02-22 16:05:00,
2013-02-22 09:10:00,24.7,13.5,29.74,West,261,0.0,9.0,62,0.00,,,0.00,Wunderground v.1.15,2013-02-22 16:10:00,
2013-02-22 09:20:00,25.7,12.6,29.74,SSW,205,0.0,9.0,57,0.00,,,0.00,Wunderground v.1.15,2013-02-22 16:20:00,
2013-02-22 09:25:00,25.8,13.0,29.74,SSE,167,1.0,9.0,58,0.00,,,0.00,Wunderground v.1.15,2013-02-22 16:25:00,
2013-02-22 09:30:00,26.0,12.4,29.74,South,184,1.0,9.0,56,0.00,,,0.00,Wunderground v.1.15,2013-02-22 16:30:00,
2013-02-22 09:35:00,26.4,12.4,29.74,South,182,0.0,9.0,55,0.00,,,0.00,Wunderground v.1.15,2013-02-22 16:35:00,
2013-02-22 09:40:00,26.8,13.2,29.74,South,190,0.0,9.0,56,0.00,,,0.01,Wunderground v.1.15,2013-02-22 16:40:00,
2013-02-22 09:45:00,26.9,12.0,29.74,South,186,0.0,9.0,53,0.00,,,0.01,Wunderground v.1.15,2013-02-22 16:45:00,
2013-02-22 09:55:00,26.3,12.3,29.74,WNW,292,0.0,9.0,55,0.00,,,0.01,Wunderground v.1.15,2013-02-22 16:55:00,
2013-02-22 10:00:00,26.5,12.5,29.74,SSW,195,0.0,9.0,55,0.00,,,0.01,Wunderground v.1.15,2013-02-22 17:00:00,
2013-02-22 10:05:00,26.7,13.1,29.74,South,169,0.0,9.0,56,0.00,,,0.01,Wunderground v.1.15,2013-02-22 17:05:00,
2013-02-22 10:10:00,26.9,12.5,29.74,SSE,161,0.0,9.0,54,0.00,,,0.01,Wunderground v.1.15,2013-02-22 17:10:00,
2013-02-22 10:20:00,26.9,13.3,29.74,WNW,283,0.0,9.0,56,0.00,,,0.01,Wunderground v.1.15,2013-02-22 17:20:00,
2013-02-22 10:25:00,26.9,12.5,29.74,NW,315,0.0,9.0,54,0.00,,,0.01,Wunderground v.1.15,2013-02-22 17:25:00,
2013-02-22 10:30:00,26.7,12.3,29.74,WNW,285,1.0,1.0,54,0.00,,,0.01,Wunderground v.1.15,2013-02-22 17:30:00,
2013-02-22 10:35:00,26.3,11.5,29.74,West,279,1.0,9.0,53,0.00,,,0.01,Wunderground v.1.15,2013-02-22 17:35:00,
2013-02-22 10:40:00,26.2,11.4,29.75,NNW,338,0.0,9.0,53,0.00,,,0.01,Wunderground v.1.15,2013-02-22 17:40:00,
2013-02-22 10:45:00,26.7,11.4,29.74,West,279,0.0,9.0,52,0.00,,,0.01,Wunderground v.1.15,2013-02-22 17:45:00,
2013-02-22 10:50:00,27.1,13.1,29.75,NW,306,0.0,9.0,55,0.00,,,0.01,Wunderground v.1.15,2013-02-22 17:50:00,
2013-02-22 10:55:00,27.5,11.3,29.75,North,5,1.0,9.0,50,0.00,,,0.01,Wunderground v.1.15,2013-02-22 17:55:00,
2013-02-22 11:05:00,27.3,12.0,29.75,WNW,284,0.0,9.0,52,0.00,,,0.01,Wunderground v.1.15,2013-02-22 18:05:00,
2013-02-22 11:10:00,27.5,12.2,29.75,West,263,0.0,9.0,52,0.00,,,0.01,Wunderground v.1.15,2013-02-22 18:10:00,
2013-02-22 11:15:00,27.9,12.1,29.74,NNW,347,1.0,9.0,51,0.00,,,0.01,Wunderground v.1.15,2013-02-22 18:15:00,
2013-02-22 11:20:00,28.3,12.9,29.74,NW,304,1.0,1.0,52,0.00,,,0.01,Wunderground v.1.15,2013-02-22 18:20:00,
2013-02-22 11:25:00,28.9,13.5,29.74,SW,226,0.0,4.0,52,0.00,,,0.02,Wunderground v.1.15,2013-02-22 18:25:00,
2013-02-22 11:35:00,29.4,13.0,29.74,SSW,198,1.0,9.0,50,0.00,,,0.02,Wunderground v.1.15,2013-02-22 18:35:00,
2013-02-22 11:40:00,29.3,12.0,29.74,SSW,197,0.0,9.0,48,0.00,,,0.02,Wunderground v.1.15,2013-02-22 18:40:00,
2013-02-22 11:45:00,29.1,13.6,29.74,SSW,197,0.0,9.0,52,0.00,,,0.02,Wunderground v.1.15,2013-02-22 18:45:00,
2013-02-22 11:50:00,28.7,11.9,29.74,SSE,155,0.0,9.0,49,0.00,,,0.02,Wunderground v.1.15,2013-02-22 18:50:00,
2013-02-22 11:55:00,28.4,12.6,29.74,WNW,287,1.0,9.0,51,0.00,,,0.02,Wunderground v.1.15,2013-02-22 18:55:00,
2013-02-22 12:00:00,28.3,12.9,29.74,South,180,1.0,1.0,52,0.00,,,0.02,Wunderground v.1.15,2013-02-22 19:00:00,
2013-02-22 12:10:00,27.8,12.0,29.74,SSW,193,1.0,1.0,51,0.00,,,0.02,Wunderground v.1.15,2013-02-22 19:10:00,
2013-02-22 12:15:00,27.3,12.0,29.73,SSE,160,1.0,5.0,52,0.00,,,0.02,Wunderground v.1.15,2013-02-22 19:15:00,
2013-02-22 12:20:00,26.7,11.4,29.73,SSE,148,1.0,1.0,52,0.00,,,0.02,Wunderground v.1.15,2013-02-22 19:20:00,
2013-02-22 12:25:00,26.4,10.7,29.73,SSE,168,1.0,9.0,51,0.00,,,0.02,Wunderground v.1.15,2013-02-22 19:25:00,
2013-02-22 12:35:00,26.1,10.9,29.73,SE,142,1.0,9.0,52,0.00,,,0.02,Wunderground v.1.15,2013-02-22 19:35:00,
2013-02-22 12:40:00,26.3,13.1,29.73,SSW,212,0.0,9.0,57,0.00,,,0.02,Wunderground v.1.15,2013-02-22 19:40:00,
2013-02-22 12:45:00,26.5,12.1,29.72,SSE,149,1.0,9.0,54,0.00,,,0.02,Wunderground v.1.15,2013-02-22 19:45:00,
2013-02-22 12:50:00,26.4,15.1,29.72,NE,53,1.0,1.0,62,0.00,,,0.02,Wunderground v.1.15,2013-02-22 19:50:00,
2013-02-22 12:55:00,26.5,16.0,29.72,ENE,67,1.0,9.0,64,0.00,,,0.02,Wunderground v.1.15,2013-02-22 19:55:00,
2013-02-22 13:00:00,26.4,16.6,29.72,East,90,1.0,1.0,66,0.00,,,0.02,Wunderground v.1.15,2013-02-22 20:00:00,
2013-02-22 13:05:00,26.3,17.2,29.72,SE,134,1.0,2.0,68,0.00,,,0.02,Wunderground v.1.15,2013-02-22 20:05:00,
2013-02-22 13:15:00,25.9,17.8,29.71,NE,50,1.0,9.0,71,0.00,,,0.02,Wunderground v.1.15,2013-02-22 20:15:00,
2013-02-22 13:20:00,25.9,17.8,29.71,ESE,107,1.0,1.0,71,0.00,,,0.02,Wunderground v.1.15,2013-02-22 20:20:00,
2013-02-22 13:25:00,25.4,17.0,29.71,SE,142,1.0,9.0,70,0.00,,,0.02,Wunderground v.1.15,2013-02-22 20:25:00,
2013-02-22 13:30:00,25.2,17.1,29.71,SE,130,1.0,9.0,71,0.00,,,0.02,Wunderground v.1.15,2013-02-22 20:30:00,
2013-02-22 13:35:00,25.1,17.7,29.71,NE,54,0.0,9.0,73,0.00,,,0.02,Wunderground v.1.15,2013-02-22 20:35:00,
2013-02-22 13:40:00,25.0,17.2,29.71,NE,47,1.0,1.0,72,0.00,,,0.02,Wunderground v.1.15,2013-02-22 20:40:00,
2013-02-22 13:45:00,24.8,17.1,29.71,SSE,148,0.0,9.0,72,0.00,,,0.02,Wunderground v.1.15,2013-02-22 20:45:00,
2013-02-22 13:50:00,24.5,16.4,29.71,SE,143,0.0,9.0,71,0.00,,,0.02,Wunderground v.1.15,2013-02-22 20:50:00,
2013-02-22 13:55:00,24.2,16.5,29.71,East,91,0.0,9.0,72,0.00,,,0.02,Wunderground v.1.15,2013-02-22 20:55:00,
2013-02-22 14:00:00,23.8,16.1,29.71,NNE,33,1.0,9.0,72,0.00,,,0.02,Wunderground v.1.15,2013-02-22 21:00:00,
2013-02-22 14:05:00,23.5,16.4,29.71,ENE,75,1.0,9.0,74,0.00,,,0.02,Wunderground v.1.15,2013-02-22 21:05:00,
2013-02-22 14:10:00,23.4,16.6,29.71,SSE,155,0.0,9.0,75,0.00,,,0.02,Wunderground v.1.15,2013-02-22 21:10:00,
2013-02-22 14:15:00,23.6,16.5,29.71,SSE,153,0.0,9.0,74,0.00,,,0.02,Wunderground v.1.15,2013-02-22 21:15:00,
2013-02-22 14:20:00,23.6,16.2,29.71,SE,146,0.0,9.0,73,0.00,,,0.02,Wunderground v.1.15,2013-02-22 21:20:00,
2013-02-22 14:25:00,23.4,16.0,29.71,SE,145,0.0,9.0,73,0.00,,,0.02,Wunderground v.1.15,2013-02-22 21:25:00,
2013-02-22 14:30:00,23.3,15.9,29.71,East,88,0.0,9.0,73,0.00,,,0.02,Wunderground v.1.15,2013-02-22 21:30:00,
2013-02-22 14:35:00,23.1,16.0,29.71,ESE,107,0.0,9.0,74,0.00,,,0.02,Wunderground v.1.15,2013-02-22 21:35:00,
2013-02-22 14:40:00,23.1,16.7,29.71,East,90,0.0,9.0,76,0.00,,,0.02,Wunderground v.1.15,2013-02-22 21:40:00,
2013-02-22 14:45:00,23.2,16.8,29.71,East,80,0.0,9.0,76,0.00,,,0.02,Wunderground v.1.15,2013-02-22 21:45:00,
2013-02-22 14:55:00,23.4,17.8,29.71,ENE,60,0.0,9.0,79,0.00,,,0.02,Wunderground v.1.15,2013-02-22 21:55:00,
2013-02-22 15:00:00,23.6,17.7,29.71,East,100,0.0,9.0,78,0.00,,,0.02,Wunderground v.1.15,2013-02-22 22:00:00,
2013-02-22 15:05:00,23.6,17.4,29.71,ENE,59,0.0,9.0,77,0.00,,,0.02,Wunderground v.1.15,2013-02-22 22:05:00,
2013-02-22 15:10:00,23.7,17.5,29.71,SE,133,0.0,9.0,77,0.00,,,0.02,Wunderground v.1.15,2013-02-22 22:10:00,
2013-02-22 15:15:00,23.8,17.3,29.71,ESE,115,0.0,9.0,76,0.00,,,0.02,Wunderground v.1.15,2013-02-22 22:15:00,
2013-02-22 15:20:00,23.9,17.7,29.71,SE,144,0.0,9.0,77,0.00,,,0.02,Wunderground v.1.15,2013-02-22 22:20:00,
2013-02-22 15:30:00,24.1,17.6,29.71,SE,126,0.0,9.0,76,0.00,,,0.02,Wunderground v.1.15,2013-02-22 22:30:00,
2013-02-22 15:40:00,23.3,17.5,29.71,ESE,113,0.0,9.0,78,0.00,,,0.02,Wunderground v.1.15,2013-02-22 22:40:00,
2013-02-22 15:50:00,22.5,17.3,29.72,ESE,123,0.0,9.0,80,0.00,,,0.02,Wunderground v.1.15,2013-02-22 22:50:00,
2013-02-22 15:55:00,22.2,17.3,29.72,East,81,0.0,9.0,81,0.00,,,0.02,Wunderground v.1.15,2013-02-22 22:55:00,
2013-02-22 16:00:00,22.0,17.3,29.72,ENE,76,0.0,9.0,82,0.00,,,0.02,Wunderground v.1.15,2013-02-22 23:00:00,
2013-02-22 16:05:00,22.0,17.1,29.72,ENE,73,0.0,9.0,81,0.00,,,0.02,Wunderground v.1.15,2013-02-22 23:05:00,
2013-02-22 16:10:00,21.7,16.8,29.72,SE,138,0.0,9.0,81,0.00,,,0.02,Wunderground v.1.15,2013-02-22 23:10:00,
2013-02-22 16:15:00,21.5,16.6,29.73,SE,138,0.0,9.0,81,0.00,,,0.02,Wunderground v.1.15,2013-02-22 23:15:00,
2013-02-22 16:25:00,21.1,16.7,29.73,SE,128,0.0,9.0,83,0.00,,,0.02,Wunderground v.1.15,2013-02-22 23:25:00,
2013-02-22 16:30:00,21.2,17.1,29.74,SE,128,0.0,9.0,84,0.00,,,0.02,Wunderground v.1.15,2013-02-22 23:30:00,
2013-02-22 16:35:00,21.1,17.0,29.74,ENE,67,0.0,9.0,84,0.00,,,0.02,Wunderground v.1.15,2013-02-22 23:35:00,
2013-02-22 16:40:00,20.9,16.8,29.74,SE,144,0.0,9.0,84,0.00,,,0.02,Wunderground v.1.15,2013-02-22 23:40:00,
2013-02-22 16:45:00,20.6,16.8,29.74,SE,134,0.0,9.0,85,0.00,,,0.02,Wunderground v.1.15,2013-02-22 23:45:00,
2013-02-22 16:50:00,20.2,16.4,29.74,ENE,63,0.0,9.0,85,0.00,,,0.02,Wunderground v.1.15,2013-02-22 23:50:00,
2013-02-22 16:55:00,19.9,16.4,29.75,ENE,63,0.0,9.0,86,0.00,,,0.02,Wunderground v.1.15,2013-02-22 23:55:00,
2013-02-22 17:00:00,19.7,16.2,29.75,ENE,71,0.0,9.0,86,0.00,,,0.02,Wunderground v.1.15,2013-02-23 00:00:00,
2013-02-22 17:05:00,19.5,16.3,29.75,NE,50,0.0,9.0,87,0.00,,,0.02,Wunderground v.1.15,2013-02-23 00:05:00,
2013-02-22 17:10:00,19.5,16.3,29.75,ENE,74,0.0,9.0,87,0.00,,,0.02,Wunderground v.1.15,2013-02-23 00:10:00,
2013-02-22 17:15:00,19.5,16.5,29.75,East,85,0.0,9.0,88,0.00,,,0.02,Wunderground v.1.15,2013-02-23 00:15:00,
2013-02-22 17:20:00,19.5,16.5,29.75,SE,142,0.0,9.0,88,0.00,,,0.02,Wunderground v.1.15,2013-02-23 00:20:00,
2013-02-22 17:25:00,19.5,16.5,29.76,SE,142,0.0,9.0,88,0.00,,,0.02,Wunderground v.1.15,2013-02-23 00:25:00,
2013-02-22 17:30:00,19.3,16.3,29.76,SE,142,0.0,9.0,88,0.00,,,0.02,Wunderground v.1.15,2013-02-23 00:30:00,
2013-02-22 17:40:00,19.0,16.0,29.77,SE,139,0.0,9.0,88,0.00,,,0.02,Wunderground v.1.15,2013-02-23 00:40:00,
2013-02-22 17:45:00,19.0,16.3,29.77,SE,139,0.0,9.0,89,0.00,,,0.02,Wunderground v.1.15,2013-02-23 00:45:00,
2013-02-22 17:50:00,18.9,16.2,29.77,SE,139,0.0,9.0,89,0.00,,,0.02,Wunderground v.1.15,2013-02-23 00:50:00,
2013-02-22 17:55:00,18.9,16.2,29.77,SE,139,0.0,9.0,89,0.00,,,0.02,Wunderground v.1.15,2013-02-23 00:55:00,
2013-02-22 18:00:00,18.8,16.1,29.78,SE,139,0.0,9.0,89,0.00,,,0.02,Wunderground v.1.15,2013-02-23 01:00:00,
2013-02-22 18:05:00,18.8,16.1,29.77,SE,139,0.0,9.0,89,0.00,,,0.02,Wunderground v.1.15,2013-02-23 01:05:00,
2013-02-22 18:10:00,18.7,16.0,29.78,SE,139,0.0,9.0,89,0.00,,,0.02,Wunderground v.1.15,2013-02-23 01:10:00,
2013-02-22 18:15:00,18.7,16.0,29.78,SE,139,0.0,9.0,89,0.00,,,0.02,Wunderground v.1.15,2013-02-23 01:15:00,
2013-02-22 18:20:00,18.6,15.9,29.78,SE,139,0.0,9.0,89,0.00,,,0.02,Wunderground v.1.15,2013-02-23 01:20:00,
2013-02-22 18:25:00,18.6,15.9,29.79,SE,139,0.0,9.0,89,0.00,,,0.02,Wunderground v.1.15,2013-02-23 01:25:00,
2013-02-22 18:30:00,18.6,15.9,29.79,SE,139,0.0,9.0,89,0.00,,,0.02,Wunderground v.1.15,2013-02-23 01:30:00,
2013-02-22 18:35:00,18.5,15.8,29.79,SE,139,0.0,9.0,89,0.00,,,0.02,Wunderground v.1.15,2013-02-23 01:35:00,
2013-02-22 18:40:00,18.5,15.8,29.79,SE,139,0.0,9.0,89,0.00,,,0.02,Wunderground v.1.15,2013-02-23 01:40:00,
2013-02-22 18:45:00,18.4,15.7,29.80,SE,139,0.0,9.0,89,0.00,,,0.02,Wunderground v.1.15,2013-02-23 01:45:00,
2013-02-22 18:50:00,18.4,15.7,29.80,SE,139,0.0,9.0,89,0.00,,,0.02,Wunderground v.1.15,2013-02-23 01:50:00,
2013-02-22 18:55:00,18.2,15.5,29.80,SE,139,0.0,9.0,89,0.00,,,0.02,Wunderground v.1.15,2013-02-23 01:55:00,
2013-02-22 19:00:00,18.1,15.4,29.80,SE,139,0.0,9.0,89,0.00,,,0.02,Wunderground v.1.15,2013-02-23 02:00:00,
2013-02-22 19:10:00,17.7,15.0,29.80,SE,139,0.0,9.0,89,0.00,,,0.02,Wunderground v.1.15,2013-02-23 02:10:00,
2013-02-22 19:15:00,17.6,14.9,29.80,SE,139,0.0,9.0,89,0.00,,,0.02,Wunderground v.1.15,2013-02-23 02:15:00,
2013-02-22 19:20:00,17.5,14.8,29.81,SE,139,0.0,9.0,89,0.00,,,0.02,Wunderground v.1.15,2013-02-23 02:20:00,
2013-02-22 19:25:00,17.5,14.8,29.81,SE,139,0.0,9.0,89,0.00,,,0.02,Wunderground v.1.15,2013-02-23 02:25:00,
2013-02-22 19:30:00,17.4,14.7,29.81,SE,139,0.0,9.0,89,0.00,,,0.02,Wunderground v.1.15,2013-02-23 02:30:00,
2013-02-22 19:35:00,17.3,14.6,29.81,SE,139,0.0,9.0,89,0.00,,,0.02,Wunderground v.1.15,2013-02-23 02:35:00,
2013-02-22 19:45:00,16.9,14.0,29.81,SE,139,0.0,9.0,88,0.00,,,0.02,Wunderground v.1.15,2013-02-23 02:45:00,
2013-02-22 19:55:00,15.8,12.4,29.81,SE,139,0.0,9.0,86,0.00,,,0.02,Wunderground v.1.15,2013-02-23 02:55:00,
2013-02-22 20:00:00,15.2,11.5,29.81,SE,139,0.0,9.0,85,0.00,,,0.02,Wunderground v.1.15,2013-02-23 03:00:00,
2013-02-22 20:05:00,14.4,11.0,29.81,SE,139,0.0,9.0,86,0.00,,,0.02,Wunderground v.1.15,2013-02-23 03:05:00,
2013-02-22 20:10:00,14.1,10.9,29.81,SE,139,0.0,9.0,87,0.00,,,0.02,Wunderground v.1.15,2013-02-23 03:10:00,
2013-02-22 20:15:00,13.6,10.2,29.81,SE,139,0.0,9.0,86,0.00,,,0.02,Wunderground v.1.15,2013-02-23 03:15:00,
2013-02-22 20:20:00,13.1,10.0,29.81,SE,139,0.0,9.0,87,0.00,,,0.02,Wunderground v.1.15,2013-02-23 03:20:00,
2013-02-22 20:30:00,12.4,9.3,29.82,SE,139,0.0,9.0,87,0.00,,,0.02,Wunderground v.1.15,2013-02-23 03:30:00,
2013-02-22 20:35:00,12.2,9.1,29.82,SE,139,0.0,9.0,87,0.00,,,0.02,Wunderground v.1.15,2013-02-23 03:35:00,
2013-02-22 20:45:00,12.1,9.7,29.83,SE,139,0.0,9.0,90,0.00,,,0.02,Wunderground v.1.15,2013-02-23 03:45:00,
2013-02-22 20:50:00,12.2,9.8,29.83,SE,139,0.0,9.0,90,0.00,,,0.02,Wunderground v.1.15,2013-02-23 03:50:00,
2013-02-22 20:55:00,12.5,10.4,29.83,SE,139,0.0,9.0,91,0.00,,,0.02,Wunderground v.1.15,2013-02-23 03:55:00,
2013-02-22 21:05:00,12.6,10.2,29.84,SE,139,0.0,9.0,90,0.00,,,0.02,Wunderground v.1.15,2013-02-23 04:05:00,
2013-02-22 21:10:00,12.7,10.3,29.84,WSW,248,0.0,9.0,90,0.00,,,0.02,Wunderground v.1.15,2013-02-23 04:10:00,
2013-02-22 21:15:00,12.6,9.7,29.84,NNW,333,0.0,9.0,88,0.00,,,0.02,Wunderground v.1.15,2013-02-23 04:15:00,
2013-02-22 21:20:00,12.6,9.7,29.84,NNW,333,0.0,9.0,88,0.00,,,0.02,Wunderground v.1.15,2013-02-23 04:20:00,
2013-02-22 21:25:00,12.8,10.2,29.84,NNW,333,0.0,9.0,89,0.00,,,0.02,Wunderground v.1.15,2013-02-23 04:25:00,
2013-02-22 21:30:00,13.0,10.1,29.83,NNW,333,0.0,9.0,88,0.00,,,0.02,Wunderground v.1.15,2013-02-23 04:30:00,
2013-02-22 21:35:00,13.0,9.9,29.83,NNW,333,0.0,9.0,87,0.00,,,0.02,Wunderground v.1.15,2013-02-23 04:35:00,
2013-02-22 21:40:00,12.5,9.1,29.83,NNW,333,0.0,9.0,86,0.00,,,0.02,Wunderground v.1.15,2013-02-23 04:40:00,
2013-02-22 21:50:00,12.1,8.7,29.83,NNW,333,0.0,9.0,86,0.00,,,0.02,Wunderground v.1.15,2013-02-23 04:50:00,
2013-02-22 21:55:00,12.0,8.6,29.83,WNW,290,0.0,9.0,86,0.00,,,0.02,Wunderground v.1.15,2013-02-23 04:55:00,
2013-02-22 22:00:00,12.1,9.0,29.83,WNW,290,0.0,9.0,87,0.00,,,0.02,Wunderground v.1.15,2013-02-23 05:00:00,
2013-02-22 22:05:00,11.9,8.5,29.83,WNW,290,0.0,9.0,86,0.00,,,0.02,Wunderground v.1.15,2013-02-23 05:05:00,
2013-02-22 22:10:00,11.9,8.5,29.83,WNW,290,0.0,9.0,86,0.00,,,0.02,Wunderground v.1.15,2013-02-23 05:10:00,
2013-02-22 22:15:00,11.8,8.2,29.82,WNW,286,0.0,9.0,85,0.00,,,0.02,Wunderground v.1.15,2013-02-23 05:15:00,
2013-02-22 22:20:00,12.1,8.2,29.82,North,5,0.0,9.0,84,0.00,,,0.02,Wunderground v.1.15,2013-02-23 05:20:00,
2013-02-22 22:25:00,12.5,8.3,29.82,WNW,296,0.0,9.0,83,0.00,,,0.02,Wunderground v.1.15,2013-02-23 05:25:00,
2013-02-22 22:30:00,12.8,8.3,29.81,NNW,344,0.0,9.0,82,0.00,,,0.02,Wunderground v.1.15,2013-02-23 05:30:00,
2013-02-22 22:35:00,13.1,8.4,29.81,WNW,293,0.0,9.0,81,0.00,,,0.02,Wunderground v.1.15,2013-02-23 05:35:00,
2013-02-22 22:40:00,13.2,8.2,29.82,WNW,293,0.0,9.0,80,0.00,,,0.02,Wunderground v.1.15,2013-02-23 05:40:00,
2013-02-22 22:45:00,13.3,7.7,29.82,NW,321,0.0,9.0,78,0.00,,,0.02,Wunderground v.1.15,2013-02-23 05:45:00,
2013-02-22 22:50:00,13.4,7.5,29.82,NW,313,0.0,9.0,77,0.00,,,0.02,Wunderground v.1.15,2013-02-23 05:50:00,
2013-02-22 23:00:00,13.4,8.1,29.81,NNW,331,1.0,9.0,79,0.00,,,0.02,Wunderground v.1.15,2013-02-23 06:00:00,
2013-02-22 23:10:00,13.8,7.3,29.81,NNW,340,1.0,9.0,75,0.00,,,0.02,Wunderground v.1.15,2013-02-23 06:10:00,
2013-02-22 23:15:00,14.0,8.1,29.81,NNE,12,2.0,9.0,77,0.00,,,0.02,Wunderground v.1.15,2013-02-23 06:15:00,
2013-02-22 23:20:00,14.2,7.4,29.81,NW,319,2.0,2.0,74,0.00,,,0.02,Wunderground v.1.15,2013-02-23 06:20:00,
2013-02-22 23:25:00,14.5,7.1,29.81,WNW,296,2.0,9.0,72,0.00,,,0.03,Wunderground v.1.15,2013-02-23 06:25:00,
2013-02-22 23:30:00,14.4,6.7,29.81,NNW,347,1.0,9.0,71,0.00,,,0.03,Wunderground v.1.15,2013-02-23 06:30:00,
2013-02-22 23:40:00,14.4,6.4,29.81,NNW,329,1.0,9.0,70,0.00,,,0.03,Wunderground v.1.15,2013-02-23 06:40:00,
2013-02-22 23:45:00,14.4,6.1,29.81,North,351,1.0,9.0,69,0.00,,,0.03,Wunderground v.1.15,2013-02-23 06:45:00,
2013-02-22 23:50:00,14.5,5.9,29.81,NNW,346,1.0,9.0,68,0.00,,,0.03,Wunderground v.1.15,2013-02-23 06:50:00,